Time,TemperatureF,DewpointF,PressureIn,WindDirection,WindDirectionDegrees,WindSpeedMPH,WindSpeedGustMPH,Humidity,HourlyPrecipIn,Conditions,Clouds,dailyrainin,SolarRadiationWatts/m^2,SoftwareType,DateUTC
2013-03-11 00:00:00,38.3,35.6,30.18,East,92,0.0,0.0,90,0.00,,,0.00,0,WeatherCatV1.14B232,2013-03-11 04:00:00,
2013-03-11 00:01:00,38.3,35.6,30.18,East,80,1.0,1.0,90,0.00,,,0.00,0,WeatherCatV1.14B232,2013-03-11 04:01:00,
2013-03-11 00:06:00,38.3,35.6,30.17,ESE,119,0.0,0.0,90,0.00,,,0.00,0,WeatherCatV1.14B232,2013-03-11 04:06:00,
2013-03-11 00:11:00,38.4,35.7,30.17,ESE,118,0.0,2.0,90,0.00,,,0.00,0,WeatherCatV1.14B232,2013-03-11 04:11:00,
2013-03-11 00:16:00,38.5,35.5,30.17,East,101,0.0,2.0,89,0.00,,,0.00,0,WeatherCatV1.14B232,2013-03-11 04:16:00,
2013-03-11 00:21:00,38.5,35.5,30.16,SE,128,0.0,1.0,89,0.00,,,0.00,0,WeatherCatV1.14B232,2013-03-11 04:21:00,
2013-03-11 00:26:00,38.5,35.5,30.16,ESE,115,0.0,1.0,89,0.00,,,0.00,0,WeatherCatV1.14B232,2013-03-11 04:26:00,
2013-03-11 00:31:00,38.6,35.6,30.17,WSW,240,0.0,0.0,89,0.00,,,0.00,0,WeatherCatV1.14B232,2013-03-11 04:31:00,
2013-03-11 00:36:00,38.5,35.5,30.17,SE,124,0.0,0.0,89,0.00,,,0.00,0,WeatherCatV1.14B232,2013-03-11 04:36:00,
2013-03-11 00:41:00,38.5,35.8,30.17,East,95,1.0,4.0,90,0.00,,,0.00,0,WeatherCatV1.14B232,2013-03-11 04:41:00,
2013-03-11 00:46:00,38.6,35.9,30.16,ESE,108,2.0,4.0,90,0.00,,,0.00,0,WeatherCatV1.14B232,2013-03-11 04:46:00,
2013-03-11 00:51:00,38.7,35.7,30.17,SE,126,0.0,0.0,89,0.00,,,0.00,0,WeatherCatV1.14B232,2013-03-11 04:51:00,
2013-03-11 00:56:00,38.7,35.7,30.16,ESE,115,2.0,2.0,89,0.00,,,0.00,0,WeatherCatV1.14B232,2013-03-11 04:56:00,
2013-03-11 01:01:00,38.7,35.7,30.16,ESE,105,0.0,3.0,89,0.00,,,0.00,0,WeatherCatV1.14B232,2013-03-11 05:01:00,
2013-03-11 01:06:00,38.7,35.7,30.16,ESE,121,0.0,1.0,89,0.00,,,0.00,0,WeatherCatV1.14B232,2013-03-11 05:06:00,
2013-03-11 01:11:00,38.7,36.0,30.17,SE,134,0.0,0.0,90,0.00,,,0.00,0,WeatherCatV1.14B232,2013-03-11 05:11:00,
2013-03-11 01:16:00,38.7,36.0,30.17,SSE,168,0.0,0.0,90,0.00,,,0.00,0,WeatherCatV1.14B232,2013-03-11 05:16:00,
2013-03-11 01:21:00,38.8,36.1,30.17,ESE,121,0.0,1.0,90,0.00,,,0.00,0,WeatherCatV1.14B232,2013-03-11 05:21:00,
2013-03-11 01:26:00,38.6,35.9,30.16,SE,144,0.0,1.0,90,0.00,,,0.00,0,WeatherCatV1.14B232,2013-03-11 05:26:00,
2013-03-11 01:31:00,38.6,35.9,30.15,SE,134,0.0,1.0,90,0.00,,,0.00,0,WeatherCatV1.14B232,2013-03-11 05:31:00,
2013-03-11 01:36:00,38.5,35.8,30.15,SE,133,0.0,1.0,90,0.00,,,0.00,0,WeatherCatV1.14B232,2013-03-11 05:36:00,
2013-03-11 01:41:00,38.5,35.8,30.13,ESE,113,1.0,4.0,90,0.00,,,0.00,0,WeatherCatV1.14B232,2013-03-11 05:41:00,
2013-03-11 01:46:00,38.4,35.7,30.14,East,94,0.0,1.0,90,0.00,,,0.00,0,WeatherCatV1.14B232,2013-03-11 05:46:00,
2013-03-11 01:51:00,38.4,35.7,30.14,North,11,1.0,1.0,90,0.00,,,0.00,0,WeatherCatV1.14B232,2013-03-11 05:51:00,
2013-03-11 01:56:00,38.2,35.8,30.15,NNW,348,0.0,0.0,91,0.00,,,0.00,0,WeatherCatV1.14B232,2013-03-11 05:56:00,
2013-03-11 02:01:00,38.3,35.9,30.15,North,349,0.0,1.0,91,0.00,,,0.00,0,WeatherCatV1.14B232,2013-03-11 06:01:00,
2013-03-11 02:06:00,38.3,35.9,30.15,North,349,0.0,0.0,91,0.00,,,0.00,0,WeatherCatV1.14B232,2013-03-11 06:06:00,
2013-03-11 02:11:00,38.4,36.0,30.15,North,349,0.0,0.0,91,0.00,,,0.00,0,WeatherCatV1.14B232,2013-03-11 06:11:00,
2013-03-11 02:16:00,38.4,36.0,30.15,North,349,0.0,0.0,91,0.00,,,0.00,0,WeatherCatV1.14B232,2013-03-11 06:16:00,
2013-03-11 02:21:00,38.5,36.1,30.15,North,349,0.0,0.0,91,0.00,,,0.00,0,WeatherCatV1.14B232,2013-03-11 06:21:00,
2013-03-11 02:26:00,38.6,36.2,30.15,North,349,0.0,0.0,91,0.00,,,0.00,0,WeatherCatV1.14B232,2013-03-11 06:26:00,
2013-03-11 02:31:00,38.6,36.2,30.14,NNW,348,0.0,0.0,91,0.00,,,0.00,0,WeatherCatV1.14B232,2013-03-11 06:31:00,
2013-03-11 02:36:00,38.7,36.3,30.14,NE,40,0.0,0.0,91,0.00,,,0.00,0,WeatherCatV1.14B232,2013-03-11 06:36:00,
2013-03-11 02:41:00,38.7,36.3,30.14,NE,41,0.0,0.0,91,0.00,,,0.00,0,WeatherCatV1.14B232,2013-03-11 06:41:00,
2013-03-11 02:46:00,38.7,36.3,30.14,NE,41,0.0,0.0,91,0.00,,,0.00,0,WeatherCatV1.14B232,2013-03-11 06:46:00,
2013-03-11 02:51:00,38.7,36.6,30.14,East,88,0.0,0.0,92,0.00,,,0.00,0,WeatherCatV1.14B232,2013-03-11 06:51:00,
2013-03-11 02:56:00,38.8,36.4,30.13,East,88,0.0,0.0,91,0.00,,,0.00,0,WeatherCatV1.14B232,2013-03-11 06:56:00,
2013-03-11 03:01:00,38.8,36.4,30.13,East,88,0.0,0.0,91,0.00,,,0.00,0,WeatherCatV1.14B232,2013-03-11 07:01:00,
2013-03-11 03:06:00,38.8,36.4,30.13,ENE,68,0.0,0.0,91,0.00,,,0.00,0,WeatherCatV1.14B232,2013-03-11 07:06:00,
2013-03-11 03:11:00,38.9,36.5,30.13,ENE,68,0.0,1.0,91,0.00,,,0.00,0,WeatherCatV1.14B232,2013-03-11 07:11:00,
2013-03-11 03:16:00,38.9,36.5,30.13,ENE,68,0.0,0.0,91,0.00,,,0.00,0,WeatherCatV1.14B232,2013-03-11 07:16:00,
2013-03-11 03:21:00,39.0,36.6,30.12,SSW,209,0.0,0.0,91,0.00,,,0.00,0,WeatherCatV1.14B232,2013-03-11 07:21:00,
2013-03-11 03:26:00,39.1,36.7,30.12,SE,129,0.0,1.0,91,0.00,,,0.00,0,WeatherCatV1.14B232,2013-03-11 07:26:00,
2013-03-11 03:31:00,39.1,36.7,30.12,ESE,107,0.0,4.0,91,0.00,,,0.00,0,WeatherCatV1.14B232,2013-03-11 07:31:00,
2013-03-11 03:36:00,39.2,36.8,30.12,ESE,107,0.0,0.0,91,0.00,,,0.00,0,WeatherCatV1.14B232,2013-03-11 07:36:00,
2013-03-11 03:41:00,39.2,36.8,30.12,ESE,107,0.0,0.0,91,0.00,,,0.00,0,WeatherCatV1.14B232,2013-03-11 07:41:00,
2013-03-11 03:46:00,39.2,36.8,30.12,ESE,107,0.0,0.0,91,0.00,,,0.00,0,WeatherCatV1.14B232,2013-03-11 07:46:00,
2013-03-11 03:51:00,39.2,37.1,30.12,ESE,107,0.0,0.0,92,0.00,,,0.00,0,WeatherCatV1.14B232,2013-03-11 07:51:00,
2013-03-11 03:56:00,39.3,36.9,30.12,SSE,163,1.0,1.0,91,0.00,,,0.00,0,WeatherCatV1.14B232,2013-03-11 07:56:00,
2013-03-11 04:01:00,39.3,37.2,30.12,SSE,164,0.0,0.0,92,0.00,,,0.00,0,WeatherCatV1.14B232,2013-03-11 08:01:00,
2013-03-11 04:06:00,39.3,37.2,30.12,ESE,109,0.0,1.0,92,0.00,,,0.00,0,WeatherCatV1.14B232,2013-03-11 08:06:00,
2013-03-11 04:11:00,39.4,37.3,30.12,SE,127,2.0,2.0,92,0.00,,,0.00,0,WeatherCatV1.14B232,2013-03-11 08:11:00,
2013-03-11 04:16:00,39.5,37.4,30.12,ESE,110,0.0,1.0,92,0.00,,,0.00,0,WeatherCatV1.14B232,2013-03-11 08:16:00,
2013-03-11 04:21:00,39.4,37.3,30.11,ESE,110,0.0,0.0,92,0.00,,,0.00,0,WeatherCatV1.14B232,2013-03-11 08:21:00,
2013-03-11 04:26:00,39.4,37.3,30.11,ESE,110,2.0,2.0,92,0.00,,,0.00,0,WeatherCatV1.14B232,2013-03-11 08:26:00,
2013-03-11 04:31:00,39.5,37.4,30.11,ESE,110,0.0,0.0,92,0.00,,,0.00,0,WeatherCatV1.14B232,2013-03-11 08:31:00,
2013-03-11 04:36:00,39.5,37.4,30.11,ESE,110,0.0,1.0,92,0.00,,,0.00,0,WeatherCatV1.14B232,2013-03-11 08:36:00,
2013-03-11 04:41:00,39.5,37.4,30.11,ESE,111,0.0,2.0,92,0.00,,,0.00,0,WeatherCatV1.14B232,2013-03-11 08:41:00,
2013-03-11 04:46:00,39.5,37.4,30.11,ESE,111,0.0,0.0,92,0.00,,,0.00,0,WeatherCatV1.14B232,2013-03-11 08:46:00,
2013-03-11 04:51:00,39.5,37.4,30.11,ESE,111,0.0,0.0,92,0.00,,,0.00,0,WeatherCatV1.14B232,2013-03-11 08:51:00,
2013-03-11 04:56:00,39.5,37.4,30.11,ESE,111,0.0,0.0,92,0.00,,,0.00,0,WeatherCatV1.14B232,2013-03-11 08:56:00,
2013-03-11 05:01:00,39.5,37.4,30.10,ESE,111,0.0,0.0,92,0.00,,,0.00,0,WeatherCatV1.14B232,2013-03-11 09:01:00,
2013-03-11 05:06:00,39.5,37.4,30.11,ESE,111,0.0,0.0,92,0.00,,,0.00,0,WeatherCatV1.14B232,2013-03-11 09:06:00,
2013-03-11 05:11:00,39.4,37.3,30.11,ESE,111,0.0,0.0,92,0.00,,,0.00,0,WeatherCatV1.14B232,2013-03-11 09:11:00,
2013-03-11 05:16:00,39.5,37.6,30.11,ESE,111,0.0,0.0,93,0.00,,,0.00,0,WeatherCatV1.14B232,2013-03-11 09:16:00,
2013-03-11 05:21:00,39.5,37.6,30.11,ESE,111,0.0,0.0,93,0.00,,,0.00,0,WeatherCatV1.14B232,2013-03-11 09:21:00,
2013-03-11 05:26:00,39.5,37.6,30.11,ESE,111,0.0,0.0,93,0.00,,,0.00,0,WeatherCatV1.14B232,2013-03-11 09:26:00,
2013-03-11 05:31:00,39.5,37.6,30.10,ESE,111,0.0,0.0,93,0.00,,,0.00,0,WeatherCatV1.14B232,2013-03-11 09:31:00,
2013-03-11 05:36:00,39.5,37.6,30.10,ESE,111,0.0,0.0,93,0.00,,,0.00,0,WeatherCatV1.14B232,2013-03-11 09:36:00,
2013-03-11 05:41:00,39.4,37.5,30.10,ESE,111,0.0,0.0,93,0.00,,,0.00,0,WeatherCatV1.14B232,2013-03-11 09:41:00,
2013-03-11 05:46:00,39.4,37.5,30.11,ESE,111,0.0,0.0,93,0.00,,,0.00,0,WeatherCatV1.14B232,2013-03-11 09:46:00,
2013-03-11 05:51:00,39.3,37.4,30.10,ESE,111,0.0,0.0,93,0.00,,,0.00,0,WeatherCatV1.14B232,2013-03-11 09:51:00,
2013-03-11 05:56:00,39.4,37.5,30.10,ESE,111,0.0,0.0,93,0.00,,,0.00,0,WeatherCatV1.14B232,2013-03-11 09:56:00,
2013-03-11 06:01:00,39.4,37.5,30.10,ESE,111,0.0,0.0,93,0.00,,,0.00,0,WeatherCatV1.14B232,2013-03-11 10:01:00,
2013-03-11 06:06:00,39.5,37.6,30.10,ESE,111,0.0,0.0,93,0.00,,,0.00,0,WeatherCatV1.14B232,2013-03-11 10:06:00,
2013-03-11 06:11:00,39.6,37.7,30.10,ESE,111,0.0,0.0,93,0.00,,,0.00,0,WeatherCatV1.14B232,2013-03-11 10:11:00,
2013-03-11 06:16:00,39.5,37.6,30.10,ESE,111,0.0,0.0,93,0.00,,,0.00,0,WeatherCatV1.14B232,2013-03-11 10:16:00,
2013-03-11 06:21:00,39.5,37.6,30.10,ESE,111,0.0,0.0,93,0.00,,,0.00,0,WeatherCatV1.14B232,2013-03-11 10:21:00,
2013-03-11 06:26:00,39.5,37.6,30.10,ESE,111,0.0,0.0,93,0.00,,,0.00,0,WeatherCatV1.14B232,2013-03-11 10:26:00,
2013-03-11 06:31:00,39.5,37.6,30.10,ESE,111,0.0,0.0,93,0.00,,,0.00,0,WeatherCatV1.14B232,2013-03-11 10:31:00,
2013-03-11 06:36:00,39.7,37.8,30.10,ESE,111,0.0,0.0,93,0.00,,,0.00,0,WeatherCatV1.14B232,2013-03-11 10:36:00,
2013-03-11 06:41:00,39.7,37.8,30.10,ESE,111,0.0,0.0,93,0.00,,,0.00,0,WeatherCatV1.14B232,2013-03-11 10:41:00,
2013-03-11 06:46:00,39.6,37.7,30.10,ESE,111,0.0,0.0,93,0.00,,,0.00,0,WeatherCatV1.14B232,2013-03-11 10:46:00,
2013-03-11 06:51:00,39.7,37.8,30.10,ESE,111,0.0,0.0,93,0.00,,,0.00,0,WeatherCatV1.14B232,2013-03-11 10:51:00,
2013-03-11 06:56:00,39.8,37.9,30.10,ESE,111,0.0,0.0,93,0.00,,,0.00,0,WeatherCatV1.14B232,2013-03-11 10:56:00,
2013-03-11 07:01:00,39.7,37.8,30.10,ESE,111,0.0,0.0,93,0.00,,,0.00,0,WeatherCatV1.14B232,2013-03-11 11:01:00,
2013-03-11 07:06:00,39.8,37.9,30.10,ESE,111,0.0,0.0,93,0.00,,,0.00,0,WeatherCatV1.14B232,2013-03-11 11:06:00,
2013-03-11 07:11:00,39.8,37.9,30.10,ESE,111,0.0,0.0,93,0.00,,,0.00,0,WeatherCatV1.14B232,2013-03-11 11:11:00,
2013-03-11 07:16:00,39.8,37.9,30.10,East,101,0.0,0.0,93,0.00,,,0.00,0,WeatherCatV1.14B232,2013-03-11 11:16:00,
2013-03-11 07:21:00,40.0,38.1,30.10,ESE,102,0.0,1.0,93,0.00,,,0.00,0,WeatherCatV1.14B232,2013-03-11 11:21:00,
2013-03-11 07:26:00,40.0,38.1,30.09,ESE,102,0.0,0.0,93,0.00,,,0.00,7,WeatherCatV1.14B232,2013-03-11 11:26:00,
2013-03-11 07:31:00,40.1,38.2,30.09,ESE,102,0.0,0.0,93,0.00,,,0.00,11,WeatherCatV1.14B232,2013-03-11 11:31:00,
2013-03-11 07:36:00,40.2,38.3,30.09,SE,136,1.0,1.0,93,0.00,,,0.00,18,WeatherCatV1.14B232,2013-03-11 11:36:00,
2013-03-11 07:41:00,40.3,38.4,30.09,SE,126,0.0,2.0,93,0.00,,,0.00,21,WeatherCatV1.14B232,2013-03-11 11:41:00,
2013-03-11 07:46:00,40.4,38.5,30.09,ESE,103,0.0,0.0,93,0.00,,,0.00,21,WeatherCatV1.14B232,2013-03-11 11:46:00,
2013-03-11 07:51:00,40.4,38.5,30.09,ESE,110,0.0,0.0,93,0.00,,,0.00,28,WeatherCatV1.14B232,2013-03-11 11:51:00,
2013-03-11 07:56:00,40.5,38.6,30.09,ESE,110,0.0,0.0,93,0.00,,,0.00,32,WeatherCatV1.14B232,2013-03-11 11:56:00,
2013-03-11 08:01:00,40.6,38.7,30.09,SE,128,0.0,1.0,93,0.00,,,0.00,33,WeatherCatV1.14B232,2013-03-11 12:01:00,
2013-03-11 08:06:00,40.6,38.7,30.09,SE,128,0.0,0.0,93,0.00,,,0.00,39,WeatherCatV1.14B232,2013-03-11 12:06:00,
2013-03-11 08:11:00,40.7,38.8,30.09,SE,128,0.0,0.0,93,0.00,,,0.00,39,WeatherCatV1.14B232,2013-03-11 12:11:00,
2013-03-11 08:16:00,40.8,38.7,30.09,East,98,0.0,0.0,92,0.00,,,0.00,44,WeatherCatV1.14B232,2013-03-11 12:16:00,
2013-03-11 08:21:00,40.8,38.9,30.09,ESE,108,0.0,1.0,93,0.00,,,0.00,49,WeatherCatV1.14B232,2013-03-11 12:21:00,
2013-03-11 08:26:00,40.9,38.8,30.09,SE,140,0.0,0.0,92,0.00,,,0.00,54,WeatherCatV1.14B232,2013-03-11 12:26:00,
2013-03-11 08:31:00,41.0,38.9,30.10,SE,140,0.0,0.0,92,0.00,,,0.00,63,WeatherCatV1.14B232,2013-03-11 12:31:00,
2013-03-11 08:36:00,41.3,39.2,30.10,SSE,159,0.0,1.0,92,0.00,,,0.00,69,WeatherCatV1.14B232,2013-03-11 12:36:00,
2013-03-11 08:41:00,41.4,39.3,30.10,SSE,159,0.0,0.0,92,0.00,,,0.00,79,WeatherCatV1.14B232,2013-03-11 12:41:00,
2013-03-11 08:46:00,41.7,39.5,30.10,SSE,161,0.0,0.0,92,0.00,,,0.00,83,WeatherCatV1.14B232,2013-03-11 12:46:00,
2013-03-11 08:51:00,41.8,39.4,30.10,West,281,0.0,0.0,91,0.00,,,0.00,54,WeatherCatV1.14B232,2013-03-11 12:51:00,
2013-03-11 08:56:00,41.9,39.5,30.10,SW,229,0.0,0.0,91,0.00,,,0.00,77,WeatherCatV1.14B232,2013-03-11 12:56:00,
2013-03-11 09:01:00,41.9,39.5,30.10,ESE,102,0.0,2.0,91,0.00,,,0.00,77,WeatherCatV1.14B232,2013-03-11 13:01:00,
2013-03-11 09:06:00,42.0,39.6,30.11,ESE,107,0.0,0.0,91,0.00,,,0.00,86,WeatherCatV1.14B232,2013-03-11 13:06:00,
2013-03-11 09:11:00,42.3,39.9,30.11,ESE,107,0.0,0.0,91,0.00,,,0.00,81,WeatherCatV1.14B232,2013-03-11 13:11:00,
2013-03-11 09:16:00,42.5,40.1,30.11,SE,135,0.0,0.0,91,0.00,,,0.00,84,WeatherCatV1.14B232,2013-03-11 13:16:00,
2013-03-11 09:21:00,42.6,39.9,30.11,SE,135,0.0,0.0,90,0.00,,,0.00,81,WeatherCatV1.14B232,2013-03-11 13:21:00,
2013-03-11 09:26:00,42.8,40.1,30.11,ESE,115,0.0,1.0,90,0.00,,,0.00,100,WeatherCatV1.14B232,2013-03-11 13:26:00,
2013-03-11 09:31:00,43.0,40.3,30.11,ESE,120,1.0,2.0,90,0.00,,,0.00,88,WeatherCatV1.14B232,2013-03-11 13:31:00,
2013-03-11 09:36:00,43.2,40.5,30.10,ESE,102,0.0,0.0,90,0.00,,,0.00,128,WeatherCatV1.14B232,2013-03-11 13:36:00,
2013-03-11 09:41:00,43.7,41.0,30.10,ESE,102,0.0,0.0,90,0.00,,,0.00,188,WeatherCatV1.14B232,2013-03-11 13:41:00,
2013-03-11 09:46:00,44.2,41.2,30.10,WSW,240,0.0,2.0,89,0.00,,,0.00,151,WeatherCatV1.14B232,2013-03-11 13:46:00,
2013-03-11 09:51:00,44.6,41.6,30.11,WSW,240,0.0,0.0,89,0.00,,,0.00,181,WeatherCatV1.14B232,2013-03-11 13:51:00,
2013-03-11 09:56:00,44.9,41.6,30.11,ESE,104,0.0,2.0,88,0.00,,,0.00,128,WeatherCatV1.14B232,2013-03-11 13:56:00,
2013-03-11 10:01:00,45.1,42.1,30.11,East,79,0.0,0.0,89,0.00,,,0.00,163,WeatherCatV1.14B232,2013-03-11 14:01:00,
2013-03-11 10:06:00,45.3,41.7,30.11,ESE,104,4.0,4.0,87,0.00,,,0.00,183,WeatherCatV1.14B232,2013-03-11 14:06:00,
2013-03-11 10:11:00,45.5,42.2,30.11,West,261,0.0,1.0,88,0.00,,,0.00,181,WeatherCatV1.14B232,2013-03-11 14:11:00,
2013-03-11 10:16:00,45.8,42.2,30.10,SE,138,4.0,5.0,87,0.00,,,0.00,214,WeatherCatV1.14B232,2013-03-11 14:16:00,
2013-03-11 10:21:00,46.0,42.0,30.11,ESE,103,4.0,4.0,86,0.00,,,0.00,209,WeatherCatV1.14B232,2013-03-11 14:21:00,
2013-03-11 10:26:00,45.8,42.2,30.11,WNW,302,0.0,5.0,87,0.00,,,0.00,188,WeatherCatV1.14B232,2013-03-11 14:26:00,
2013-03-11 10:31:00,46.0,42.3,30.11,East,101,0.0,5.0,87,0.00,,,0.00,244,WeatherCatV1.14B232,2013-03-11 14:31:00,
2013-03-11 10:36:00,47.1,43.1,30.11,SSE,150,0.0,0.0,86,0.00,,,0.00,294,WeatherCatV1.14B232,2013-03-11 14:36:00,
2013-03-11 10:41:00,47.2,43.2,30.11,NE,54,0.0,2.0,86,0.00,,,0.00,360,WeatherCatV1.14B232,2013-03-11 14:41:00,
2013-03-11 10:46:00,47.1,42.8,30.11,SSE,159,2.0,7.0,85,0.00,,,0.00,186,WeatherCatV1.14B232,2013-03-11 14:46:00,
2013-03-11 10:51:00,46.8,42.8,30.11,SE,145,0.0,4.0,86,0.00,,,0.00,218,WeatherCatV1.14B232,2013-03-11 14:51:00,
2013-03-11 10:56:00,47.2,43.2,30.11,ESE,117,0.0,4.0,86,0.00,,,0.00,329,WeatherCatV1.14B232,2013-03-11 14:56:00,
2013-03-11 11:01:00,47.9,43.6,30.11,ESE,119,4.0,5.0,85,0.00,,,0.00,323,WeatherCatV1.14B232,2013-03-11 15:01:00,
2013-03-11 11:06:00,47.8,43.2,30.11,ESE,119,5.0,7.0,84,0.00,,,0.00,272,WeatherCatV1.14B232,2013-03-11 15:06:00,
2013-03-11 11:11:00,47.9,43.3,30.10,ESE,122,2.0,5.0,84,0.00,,,0.00,283,WeatherCatV1.14B232,2013-03-11 15:11:00,
2013-03-11 11:16:00,47.8,43.2,30.10,SSE,161,2.0,6.0,84,0.00,,,0.00,272,WeatherCatV1.14B232,2013-03-11 15:16:00,
2013-03-11 11:22:00,48.3,43.7,30.10,SSE,157,1.0,3.0,84,0.00,,,0.00,283,WeatherCatV1.14B232,2013-03-11 15:22:00,
2013-03-11 11:27:00,48.5,43.9,30.09,SE,138,0.0,4.0,84,0.00,,,0.00,206,WeatherCatV1.14B232,2013-03-11 15:27:00,
2013-03-11 11:32:00,48.7,43.5,30.09,ESE,109,1.0,7.0,82,0.00,,,0.00,278,WeatherCatV1.14B232,2013-03-11 15:32:00,
2013-03-11 11:37:00,49.0,43.7,30.08,ESE,122,1.0,6.0,82,0.00,,,0.00,290,WeatherCatV1.14B232,2013-03-11 15:37:00,
2013-03-11 11:42:00,48.9,43.6,30.08,SE,125,4.0,7.0,82,0.00,,,0.00,341,WeatherCatV1.14B232,2013-03-11 15:42:00,
2013-03-11 11:47:00,49.6,44.0,30.08,ESE,119,6.0,8.0,81,0.00,,,0.00,302,WeatherCatV1.14B232,2013-03-11 15:47:00,
2013-03-11 11:52:00,49.3,43.4,30.08,East,98,0.0,6.0,80,0.00,,,0.00,294,WeatherCatV1.14B232,2013-03-11 15:52:00,
2013-03-11 11:57:00,49.6,44.0,30.07,SE,139,0.0,4.0,81,0.00,,,0.00,329,WeatherCatV1.14B232,2013-03-11 15:57:00,
2013-03-11 12:02:00,50.2,44.3,30.07,SW,229,3.0,6.0,80,0.00,,,0.00,360,WeatherCatV1.14B232,2013-03-11 16:02:00,
2013-03-11 12:07:00,50.4,44.1,30.08,NNW,347,0.0,3.0,79,0.00,,,0.00,446,WeatherCatV1.14B232,2013-03-11 16:07:00,
2013-03-11 12:12:00,50.7,44.4,30.08,SW,235,2.0,4.0,79,0.00,,,0.00,550,WeatherCatV1.14B232,2013-03-11 16:12:00,
2013-03-11 12:17:00,51.7,44.7,30.08,NE,49,1.0,4.0,77,0.00,,,0.00,536,WeatherCatV1.14B232,2013-03-11 16:17:00,
2013-03-11 12:22:00,51.9,44.6,30.08,WSW,254,2.0,7.0,76,0.00,,,0.00,543,WeatherCatV1.14B232,2013-03-11 16:22:00,
2013-03-11 12:27:00,51.3,44.0,30.08,NE,52,0.0,9.0,76,0.00,,,0.00,422,WeatherCatV1.14B232,2013-03-11 16:27:00,
2013-03-11 12:32:00,50.9,44.3,30.09,NW,318,1.0,8.0,78,0.00,,,0.00,482,WeatherCatV1.14B232,2013-03-11 16:32:00,
2013-03-11 12:37:00,50.9,43.6,30.09,ESE,111,4.0,8.0,76,0.00,,,0.00,425,WeatherCatV1.14B232,2013-03-11 16:37:00,
2013-03-11 12:42:00,51.7,43.7,30.08,ENE,62,4.0,8.0,74,0.00,,,0.00,512,WeatherCatV1.14B232,2013-03-11 16:42:00,
2013-03-11 12:47:00,51.2,43.2,30.08,ESE,103,6.0,13.0,74,0.00,,,0.00,520,WeatherCatV1.14B232,2013-03-11 16:47:00,
2013-03-11 12:52:00,50.7,43.1,30.08,ESE,120,2.0,7.0,75,0.00,,,0.00,721,WeatherCatV1.14B232,2013-03-11 16:52:00,
2013-03-11 12:57:00,52.1,43.7,30.07,SE,124,0.0,6.0,73,0.00,,,0.00,740,WeatherCatV1.14B232,2013-03-11 16:57:00,
2013-03-11 13:02:00,52.7,44.3,30.07,WSW,258,0.0,6.0,73,0.00,,,0.00,636,WeatherCatV1.14B232,2013-03-11 17:02:00,
2013-03-11 13:07:00,52.9,44.1,30.07,ESE,117,5.0,7.0,72,0.00,,,0.00,606,WeatherCatV1.14B232,2013-03-11 17:07:00,
2013-03-11 13:12:00,52.1,43.7,30.07,East,98,7.0,7.0,73,0.00,,,0.00,615,WeatherCatV1.14B232,2013-03-11 17:12:00,
2013-03-11 13:17:00,52.3,43.9,30.07,East,92,2.0,6.0,73,0.00,,,0.00,367,WeatherCatV1.14B232,2013-03-11 17:17:00,
2013-03-11 13:22:00,51.8,43.4,30.06,ESE,113,4.0,8.0,73,0.00,,,0.00,624,WeatherCatV1.14B232,2013-03-11 17:22:00,
2013-03-11 13:27:00,51.7,44.0,30.06,ENE,66,3.0,8.0,75,0.00,,,0.00,359,WeatherCatV1.14B232,2013-03-11 17:27:00,
2013-03-11 13:32:00,52.5,44.5,30.06,East,94,4.0,6.0,74,0.00,,,0.00,584,WeatherCatV1.14B232,2013-03-11 17:32:00,
2013-03-11 13:37:00,52.1,44.1,30.06,ESE,117,0.0,8.0,74,0.00,,,0.00,577,WeatherCatV1.14B232,2013-03-11 17:37:00,
2013-03-11 13:42:00,52.8,44.4,30.05,SE,126,5.0,8.0,73,0.00,,,0.00,589,WeatherCatV1.14B232,2013-03-11 17:42:00,
2013-03-11 13:47:00,52.6,44.2,30.05,SE,127,1.0,8.0,73,0.00,,,0.00,295,WeatherCatV1.14B232,2013-03-11 17:47:00,
2013-03-11 13:52:00,52.6,44.6,30.05,WSW,241,4.0,7.0,74,0.00,,,0.00,455,WeatherCatV1.14B232,2013-03-11 17:52:00,
2013-03-11 13:57:00,52.5,44.5,30.05,SE,140,6.0,15.0,74,0.00,,,0.00,313,WeatherCatV1.14B232,2013-03-11 17:57:00,
2013-03-11 14:02:00,52.0,44.3,30.05,East,92,5.0,10.0,75,0.00,,,0.00,403,WeatherCatV1.14B232,2013-03-11 18:02:00,
2013-03-11 14:07:00,51.9,44.2,30.05,ESE,115,7.0,10.0,75,0.00,,,0.00,436,WeatherCatV1.14B232,2013-03-11 18:07:00,
2013-03-11 14:12:00,51.8,44.8,30.05,ENE,57,1.0,9.0,77,0.00,,,0.00,281,WeatherCatV1.14B232,2013-03-11 18:12:00,
2013-03-11 14:17:00,51.6,43.6,30.05,NE,44,2.0,8.0,74,0.00,,,0.00,503,WeatherCatV1.14B232,2013-03-11 18:17:00,
2013-03-11 14:22:00,51.9,43.9,30.04,East,86,5.0,11.0,74,0.00,,,0.00,476,WeatherCatV1.14B232,2013-03-11 18:22:00,
2013-03-11 14:27:00,52.3,44.6,30.04,ENE,65,1.0,2.0,75,0.00,,,0.00,411,WeatherCatV1.14B232,2013-03-11 18:27:00,
2013-03-11 14:32:00,52.8,44.4,30.04,ENE,71,2.0,4.0,73,0.00,,,0.00,374,WeatherCatV1.14B232,2013-03-11 18:32:00,
2013-03-11 14:37:00,52.7,45.0,30.04,ESE,107,7.0,8.0,75,0.00,,,0.00,330,WeatherCatV1.14B232,2013-03-11 18:37:00,
2013-03-11 14:42:00,52.3,44.3,30.04,ESE,119,5.0,8.0,74,0.00,,,0.00,316,WeatherCatV1.14B232,2013-03-11 18:42:00,
2013-03-11 14:47:00,52.4,44.7,30.03,NW,305,1.0,6.0,75,0.00,,,0.00,396,WeatherCatV1.14B232,2013-03-11 18:47:00,
2013-03-11 14:52:00,52.3,44.6,30.03,SE,132,7.0,9.0,75,0.00,,,0.00,359,WeatherCatV1.14B232,2013-03-11 18:52:00,
2013-03-11 14:57:00,52.2,45.2,30.03,East,88,3.0,7.0,77,0.00,,,0.00,250,WeatherCatV1.14B232,2013-03-11 18:57:00,
2013-03-11 15:02:00,52.1,45.1,30.03,East,95,2.0,7.0,77,0.00,,,0.00,315,WeatherCatV1.14B232,2013-03-11 19:02:00,
2013-03-11 15:06:00,52.1,45.1,30.03,SSE,149,1.0,5.0,77,0.00,,,0.00,315,WeatherCatV1.14B232,2013-03-11 19:06:00,
2013-03-11 15:12:00,52.1,45.1,30.02,SE,126,5.0,12.0,77,0.00,,,0.00,257,WeatherCatV1.14B232,2013-03-11 19:12:00,
2013-03-11 15:17:00,52.3,45.6,30.03,WSW,238,3.0,7.0,78,0.00,,,0.00,225,WeatherCatV1.14B232,2013-03-11 19:17:00,
2013-03-11 15:21:00,52.1,45.1,30.02,ESE,102,5.0,10.0,77,0.00,,,0.00,207,WeatherCatV1.14B232,2013-03-11 19:21:00,
2013-03-11 15:26:00,51.7,45.1,30.02,ESE,105,4.0,7.0,78,0.00,,,0.00,241,WeatherCatV1.14B232,2013-03-11 19:26:00,
2013-03-11 15:31:00,51.5,45.2,30.02,North,355,2.0,5.0,79,0.00,,,0.00,176,WeatherCatV1.14B232,2013-03-11 19:31:00,
2013-03-11 15:37:00,51.5,45.9,30.02,WSW,251,2.0,2.0,81,0.00,,,0.00,185,WeatherCatV1.14B232,2013-03-11 19:37:00,
2013-03-11 15:41:00,51.6,45.6,30.02,SE,134,4.0,7.0,80,0.00,,,0.00,167,WeatherCatV1.14B232,2013-03-11 19:41:00,
2013-03-11 15:46:00,51.4,45.4,30.02,NE,53,2.0,6.0,80,0.00,,,0.00,139,WeatherCatV1.14B232,2013-03-11 19:46:00,
2013-03-11 15:51:00,51.3,45.3,30.02,North,11,3.0,8.0,80,0.00,,,0.00,158,WeatherCatV1.14B232,2013-03-11 19:51:00,
2013-03-11 15:56:00,51.2,45.2,30.02,ESE,110,4.0,11.0,80,0.00,,,0.00,174,WeatherCatV1.14B232,2013-03-11 19:56:00,
2013-03-11 16:01:00,51.2,45.2,30.02,SE,140,1.0,4.0,80,0.00,,,0.00,174,WeatherCatV1.14B232,2013-03-11 20:01:00,
2013-03-11 16:06:00,51.5,45.5,30.02,ENE,57,1.0,9.0,80,0.00,,,0.00,167,WeatherCatV1.14B232,2013-03-11 20:06:00,
2013-03-11 16:11:00,51.4,45.4,30.02,East,89,2.0,7.0,80,0.00,,,0.00,172,WeatherCatV1.14B232,2013-03-11 20:11:00,
2013-03-11 16:16:00,51.3,45.7,30.01,ESE,102,2.0,4.0,81,0.00,,,0.00,146,WeatherCatV1.14B232,2013-03-11 20:16:00,
2013-03-11 16:21:00,51.2,45.6,30.01,SE,136,13.0,13.0,81,0.00,,,0.00,151,WeatherCatV1.14B232,2013-03-11 20:21:00,
2013-03-11 16:26:00,51.0,45.7,30.01,ESE,105,7.0,12.0,82,0.00,,,0.00,153,WeatherCatV1.14B232,2013-03-11 20:26:00,
2013-03-11 16:32:00,51.1,45.8,30.01,ESE,115,5.0,7.0,82,0.00,,,0.00,155,WeatherCatV1.14B232,2013-03-11 20:32:00,
2013-03-11 16:37:00,51.4,46.4,30.01,ESE,122,2.0,4.0,83,0.00,,,0.00,149,WeatherCatV1.14B232,2013-03-11 20:37:00,
2013-03-11 16:42:00,51.5,46.2,30.01,SE,143,5.0,5.0,82,0.00,,,0.00,111,WeatherCatV1.14B232,2013-03-11 20:42:00,
2013-03-11 16:47:00,51.4,46.4,30.01,ENE,69,1.0,2.0,83,0.00,,,0.00,98,WeatherCatV1.14B232,2013-03-11 20:47:00,
2013-03-11 16:52:00,51.2,45.9,30.00,ESE,115,2.0,5.0,82,0.00,,,0.00,88,WeatherCatV1.14B232,2013-03-11 20:52:00,
2013-03-11 16:57:00,51.1,46.1,30.00,ENE,76,1.0,6.0,83,0.00,,,0.00,79,WeatherCatV1.14B232,2013-03-11 20:57:00,
2013-03-11 17:02:00,51.0,46.0,30.00,SE,138,5.0,5.0,83,0.00,,,0.00,90,WeatherCatV1.14B232,2013-03-11 21:02:00,
2013-03-11 17:07:00,50.8,45.8,30.00,North,5,1.0,2.0,83,0.00,,,0.00,79,WeatherCatV1.14B232,2013-03-11 21:07:00,
2013-03-11 17:12:00,50.7,45.7,30.00,East,94,2.0,6.0,83,0.00,,,0.00,69,WeatherCatV1.14B232,2013-03-11 21:12:00,
2013-03-11 17:17:00,50.4,45.7,29.99,SE,128,0.0,2.0,84,0.00,,,0.00,69,WeatherCatV1.14B232,2013-03-11 21:17:00,
2013-03-11 17:22:00,50.2,45.6,29.99,ESE,119,0.0,5.0,84,0.00,,,0.00,67,WeatherCatV1.14B232,2013-03-11 21:22:00,
2013-03-11 17:27:00,50.0,45.4,29.99,ENE,78,1.0,7.0,84,0.00,,,0.00,67,WeatherCatV1.14B232,2013-03-11 21:27:00,
2013-03-11 17:32:00,49.8,45.5,29.99,East,98,1.0,8.0,85,0.00,,,0.00,69,WeatherCatV1.14B232,2013-03-11 21:32:00,
2013-03-11 17:37:00,49.7,45.4,29.99,NNE,24,0.0,6.0,85,0.00,,,0.00,63,WeatherCatV1.14B232,2013-03-11 21:37:00,
2013-03-11 17:42:00,49.6,45.6,29.99,ESE,107,4.0,7.0,86,0.00,,,0.00,69,WeatherCatV1.14B232,2013-03-11 21:42:00,
2013-03-11 17:47:00,49.6,45.6,29.99,SE,143,5.0,5.0,86,0.00,,,0.00,74,WeatherCatV1.14B232,2013-03-11 21:47:00,
2013-03-11 17:52:00,49.6,45.6,29.99,ESE,107,2.0,5.0,86,0.00,,,0.00,67,WeatherCatV1.14B232,2013-03-11 21:52:00,
2013-03-11 17:57:00,49.6,45.6,29.99,South,175,0.0,6.0,86,0.00,,,0.00,65,WeatherCatV1.14B232,2013-03-11 21:57:00,
2013-03-11 18:02:00,49.6,45.6,29.99,ENE,57,1.0,5.0,86,0.00,,,0.00,58,WeatherCatV1.14B232,2013-03-11 22:02:00,
2013-03-11 18:07:00,49.6,45.6,29.99,SE,132,5.0,5.0,86,0.00,,,0.00,44,WeatherCatV1.14B232,2013-03-11 22:07:00,
2013-03-11 18:12:00,49.6,45.6,29.98,SE,128,0.0,1.0,86,0.00,,,0.00,33,WeatherCatV1.14B232,2013-03-11 22:12:00,
2013-03-11 18:17:00,49.5,45.8,29.99,East,90,1.0,5.0,87,0.00,,,0.00,28,WeatherCatV1.14B232,2013-03-11 22:17:00,
2013-03-11 18:22:00,49.5,45.8,29.98,SE,131,0.0,4.0,87,0.00,,,0.00,26,WeatherCatV1.14B232,2013-03-11 22:22:00,
2013-03-11 18:27:00,49.4,45.7,29.98,NE,51,0.0,2.0,87,0.00,,,0.00,18,WeatherCatV1.14B232,2013-03-11 22:27:00,
2013-03-11 18:32:00,49.2,45.5,29.99,East,97,4.0,6.0,87,0.00,,,0.00,16,WeatherCatV1.14B232,2013-03-11 22:32:00,
2013-03-11 18:37:00,49.2,45.5,29.98,SSE,157,0.0,1.0,87,0.00,,,0.00,11,WeatherCatV1.14B232,2013-03-11 22:37:00,
2013-03-11 18:42:00,49.2,45.8,29.98,SE,126,0.0,6.0,88,0.00,,,0.00,7,WeatherCatV1.14B232,2013-03-11 22:42:00,
2013-03-11 18:47:00,49.1,45.7,29.98,SE,133,0.0,4.0,88,0.00,,,0.00,5,WeatherCatV1.14B232,2013-03-11 22:47:00,
2013-03-11 18:52:00,49.0,45.6,29.98,NE,48,0.0,2.0,88,0.00,,,0.00,0,WeatherCatV1.14B232,2013-03-11 22:52:00,
2013-03-11 18:57:00,48.9,45.5,29.98,SE,132,5.0,7.0,88,0.00,,,0.00,0,WeatherCatV1.14B232,2013-03-11 22:57:00,
2013-03-11 19:02:00,48.8,45.7,29.98,ESE,109,1.0,4.0,89,0.00,,,0.00,0,WeatherCatV1.14B232,2013-03-11 23:02:00,
2013-03-11 19:07:00,48.9,45.8,29.98,ENE,73,2.0,4.0,89,0.00,,,0.00,0,WeatherCatV1.14B232,2013-03-11 23:07:00,
2013-03-11 19:12:00,48.8,45.7,29.98,ENE,63,5.0,6.0,89,0.00,,,0.00,0,WeatherCatV1.14B232,2013-03-11 23:12:00,
2013-03-11 19:17:00,48.8,45.7,29.98,ESE,111,1.0,8.0,89,0.00,,,0.00,0,WeatherCatV1.14B232,2013-03-11 23:17:00,
2013-03-11 19:22:00,48.8,45.7,29.98,East,92,2.0,5.0,89,0.00,,,0.00,0,WeatherCatV1.14B232,2013-03-11 23:22:00,
2013-03-11 19:27:00,48.7,45.6,29.98,ESE,122,2.0,6.0,89,0.00,,,0.00,0,WeatherCatV1.14B232,2013-03-11 23:27:00,
2013-03-11 19:32:00,48.7,45.9,29.98,East,82,0.0,1.0,90,0.00,,,0.00,0,WeatherCatV1.14B232,2013-03-11 23:32:00,
2013-03-11 19:37:00,48.7,45.9,29.98,SE,126,0.0,0.0,90,0.00,,,0.00,0,WeatherCatV1.14B232,2013-03-11 23:37:00,
2013-03-11 19:42:00,48.7,45.9,29.99,ESE,119,0.0,5.0,90,0.00,,,0.00,0,WeatherCatV1.14B232,2013-03-11 23:42:00,
2013-03-11 19:47:00,48.7,45.9,29.99,SE,145,1.0,5.0,90,0.00,,,0.00,0,WeatherCatV1.14B232,2013-03-11 23:47:00,
2013-03-11 19:52:00,48.7,45.9,29.98,ESE,104,2.0,5.0,90,0.00,,,0.00,0,WeatherCatV1.14B232,2013-03-11 23:52:00,
2013-03-11 19:57:00,48.5,45.7,29.98,ENE,63,0.0,6.0,90,0.00,,,0.00,0,WeatherCatV1.14B232,2013-03-11 23:57:00,
2013-03-11 20:02:00,48.4,45.9,29.98,ESE,117,2.0,4.0,91,0.00,,,0.00,0,WeatherCatV1.14B232,2013-03-12 00:02:00,
2013-03-11 20:07:00,48.3,45.8,29.98,SSE,151,1.0,1.0,91,0.00,,,0.00,0,WeatherCatV1.14B232,2013-03-12 00:07:00,
2013-03-11 20:12:00,48.2,45.7,29.98,East,93,0.0,4.0,91,0.00,,,0.00,0,WeatherCatV1.14B232,2013-03-12 00:12:00,
2013-03-11 20:17:00,48.1,45.6,29.99,ESE,111,0.0,5.0,91,0.00,,,0.00,0,WeatherCatV1.14B232,2013-03-12 00:17:00,
2013-03-11 20:22:00,48.0,45.5,29.99,ESE,109,1.0,4.0,91,0.00,,,0.00,0,WeatherCatV1.14B232,2013-03-12 00:22:00,
2013-03-11 20:27:00,47.9,45.7,29.99,ESE,112,1.0,5.0,92,0.00,,,0.00,0,WeatherCatV1.14B232,2013-03-12 00:27:00,
2013-03-11 20:32:00,47.9,45.7,29.99,ENE,64,2.0,6.0,92,0.00,,,0.00,0,WeatherCatV1.14B232,2013-03-12 00:32:00,
2013-03-11 20:37:00,48.0,45.8,29.98,SE,128,0.0,4.0,92,0.00,,,0.00,0,WeatherCatV1.14B232,2013-03-12 00:37:00,
2013-03-11 20:42:00,48.1,45.9,29.99,SE,129,4.0,7.0,92,0.00,,,0.00,0,WeatherCatV1.14B232,2013-03-12 00:42:00,
2013-03-11 20:47:00,48.2,46.0,29.99,SE,132,2.0,5.0,92,0.00,,,0.00,0,WeatherCatV1.14B232,2013-03-12 00:47:00,
2013-03-11 20:52:00,48.4,46.2,29.99,SE,128,2.0,6.0,92,0.00,,,0.00,0,WeatherCatV1.14B232,2013-03-12 00:52:00,
2013-03-11 20:57:00,48.5,46.3,29.99,NE,36,2.0,2.0,92,0.00,,,0.00,0,WeatherCatV1.14B232,2013-03-12 00:57:00,
2013-03-11 21:02:00,48.5,46.6,29.98,SE,131,0.0,6.0,93,0.00,,,0.00,0,WeatherCatV1.14B232,2013-03-12 01:02:00,
2013-03-11 21:07:00,48.5,46.3,29.98,ESE,117,2.0,4.0,92,0.00,,,0.00,0,WeatherCatV1.14B232,2013-03-12 01:07:00,
2013-03-11 21:12:00,48.6,46.7,29.98,ESE,105,4.0,7.0,93,0.00,,,0.00,0,WeatherCatV1.14B232,2013-03-12 01:12:00,
2013-03-11 21:17:00,48.6,46.7,29.98,SSW,209,0.0,4.0,93,0.00,,,0.00,0,WeatherCatV1.14B232,2013-03-12 01:17:00,
2013-03-11 21:22:00,48.7,46.8,29.98,ESE,103,0.0,4.0,93,0.00,,,0.00,0,WeatherCatV1.14B232,2013-03-12 01:22:00,
2013-03-11 21:27:00,48.7,46.8,29.98,ESE,114,1.0,5.0,93,0.00,,,0.00,0,WeatherCatV1.14B232,2013-03-12 01:27:00,
2013-03-11 21:32:00,48.7,46.8,29.98,East,95,1.0,2.0,93,0.00,,,0.00,0,WeatherCatV1.14B232,2013-03-12 01:32:00,
2013-03-11 21:37:00,48.6,46.7,29.97,ESE,111,2.0,5.0,93,0.00,,,0.00,0,WeatherCatV1.14B232,2013-03-12 01:37:00,
2013-03-11 21:42:00,48.5,46.6,29.97,SE,141,1.0,5.0,93,0.00,,,0.00,0,WeatherCatV1.14B232,2013-03-12 01:42:00,
2013-03-11 21:47:00,48.5,46.6,29.97,SSE,160,1.0,6.0,93,0.00,,,0.00,0,WeatherCatV1.14B232,2013-03-12 01:47:00,
2013-03-11 21:52:00,48.5,46.6,29.98,SE,128,1.0,5.0,93,0.00,,,0.00,0,WeatherCatV1.14B232,2013-03-12 01:52:00,
2013-03-11 21:57:00,48.5,46.6,29.98,ESE,110,4.0,4.0,93,0.00,,,0.00,0,WeatherCatV1.14B232,2013-03-12 01:57:00,
2013-03-11 22:02:00,48.4,46.5,29.98,ESE,123,6.0,6.0,93,0.00,,,0.00,0,WeatherCatV1.14B232,2013-03-12 02:02:00,
2013-03-11 22:07:00,48.3,46.4,29.97,SSE,160,6.0,6.0,93,0.00,,,0.00,0,WeatherCatV1.14B232,2013-03-12 02:07:00,
2013-03-11 22:12:00,48.4,46.8,29.97,NE,49,1.0,4.0,94,0.00,,,0.00,0,WeatherCatV1.14B232,2013-03-12 02:12:00,
2013-03-11 22:17:00,48.4,46.8,29.97,SW,219,5.0,7.0,94,0.00,,,0.00,0,WeatherCatV1.14B232,2013-03-12 02:17:00,
2013-03-11 22:22:00,48.6,47.0,29.97,ENE,78,1.0,2.0,94,0.00,,,0.00,0,WeatherCatV1.14B232,2013-03-12 02:22:00,
2013-03-11 22:27:00,48.7,47.0,29.97,SE,138,0.0,4.0,94,0.00,,,0.00,0,WeatherCatV1.14B232,2013-03-12 02:27:00,
2013-03-11 22:32:00,48.8,47.2,29.97,ESE,110,5.0,5.0,94,0.00,,,0.00,0,WeatherCatV1.14B232,2013-03-12 02:32:00,
2013-03-11 22:37:00,48.8,47.2,29.96,ESE,102,2.0,5.0,94,0.00,,,0.00,0,WeatherCatV1.14B232,2013-03-12 02:37:00,
2013-03-11 22:42:00,48.9,47.2,29.96,South,182,0.0,5.0,94,0.00,,,0.00,0,WeatherCatV1.14B232,2013-03-12 02:42:00,
2013-03-11 22:47:00,49.0,47.3,29.96,ESE,117,0.0,7.0,94,0.00,,,0.00,0,WeatherCatV1.14B232,2013-03-12 02:47:00,
2013-03-11 22:52:00,49.1,47.4,29.95,ESE,104,1.0,6.0,94,0.00,,,0.00,0,WeatherCatV1.14B232,2013-03-12 02:52:00,
2013-03-11 22:57:00,49.2,47.5,29.95,East,96,0.0,7.0,94,0.00,,,0.00,0,WeatherCatV1.14B232,2013-03-12 02:57:00,
2013-03-11 23:02:00,49.2,47.5,29.95,ESE,121,4.0,5.0,94,0.00,,,0.00,0,WeatherCatV1.14B232,2013-03-12 03:02:00,
2013-03-11 23:07:00,49.3,47.6,29.95,West,275,2.0,5.0,94,0.00,,,0.00,0,WeatherCatV1.14B232,2013-03-12 03:07:00,
2013-03-11 23:12:00,49.4,47.7,29.95,South,173,4.0,5.0,94,0.00,,,0.00,0,WeatherCatV1.14B232,2013-03-12 03:12:00,
2013-03-11 23:17:00,49.5,47.8,29.95,SSW,198,3.0,6.0,94,0.00,,,0.00,0,WeatherCatV1.14B232,2013-03-12 03:17:00,
2013-03-11 23:22:00,49.5,47.8,29.95,ESE,102,1.0,6.0,94,0.00,,,0.00,0,WeatherCatV1.14B232,2013-03-12 03:22:00,
2013-03-11 23:27:00,49.6,47.9,29.95,ENE,73,1.0,2.0,94,0.00,,,0.00,0,WeatherCatV1.14B232,2013-03-12 03:27:00,
2013-03-11 23:32:00,49.7,48.0,29.95,East,100,4.0,5.0,94,0.00,,,0.00,0,WeatherCatV1.14B232,2013-03-12 03:32:00,
2013-03-11 23:37:00,49.8,48.1,29.95,SE,132,5.0,9.0,94,0.00,,,0.00,0,WeatherCatV1.14B232,2013-03-12 03:37:00,
2013-03-11 23:42:00,49.9,48.2,29.95,ESE,113,1.0,8.0,94,0.00,,,0.00,0,WeatherCatV1.14B232,2013-03-12 03:42:00,
2013-03-11 23:47:00,50.1,48.2,29.95,SE,128,4.0,11.0,93,0.00,,,0.00,0,WeatherCatV1.14B232,2013-03-12 03:47:00,
2013-03-11 23:52:00,50.2,48.3,29.96,ENE,69,4.0,6.0,93,0.00,,,0.00,0,WeatherCatV1.14B232,2013-03-12 03:52:00,
2013-03-11 23:57:00,50.4,48.5,29.95,East,91,7.0,9.0,93,0.00,,,0.00,0,WeatherCatV1.14B232,2013-03-12 03:57:00,